Starlink 30878

operational
NORAD ID: 58359 Int'l Des: 2023-177 Owner: SPXS Country: US Constellation: starlink
LEOCIRCULAR

关于 Starlink 30878

正在加载描述...

实时位置

正在加载3D地球...

即将过境

高度历史

Altitude vs Time

uPlot chart will show altitude changes over time

两行轨道根数

1 58359U 23177J 25352.28824231 -.00001199 00000-0 -73665-4 0 9990
2 58359 43.0033 73.6642 0001240 283.3237 76.7468 15.02537255115974
Epoch: Dec 18, 2025 • Age: 6 hours

当前状态

高度 570.7 km
速度 7.58 km/s
星下点 -40.60°S, 38.69°E
发射日期 Nov 18, 2023
运行时间 2 years
类型 internet

技术详情

分类 Payload
质量 730.00 kg
干质量 700.00 kg
总质量 730.00 kg
长度 0.30 m
直径 4.10 m
跨度 29.00 m
形状 Box + pan
制造商 SPXS
平台类型 Starlink V2M
阶段状态 In Orbit
所有者/国家 SPXS/US

大型星座

Loading constellations...